To NAV CANADA Home Page Login to a new session Search on AWWS site Feedback and Comments Disclaimer Vers la page française équivalente Tips FAQ What's new on the site To the Forecasts and Observations / NOTAM section To "File a Flight Plan" website Publications and other links Update of the User's profile FIC Telephone Numbers My Weather Data Folder Route Weather Data Regional Weather Data Local Weather Data To the Forecasts and Observations / NOTAM section
Request Generated 02/23/2017 at 20:46:04 UTC . Weather information available at that time is displayed.

METAR/TAF

HOPE/BC    (show WxCam)

METAR CYHE 232000Z AUTO 25004KT 9SM CLR 04/M01 A3023 RMK SLP239=
METAR CYHE 231900Z AUTO 14006KT 9SM FEW045 04/M01 A3025 RMK SLP245=
METAR CYHE 231800Z AUTO 10005KT 9SM CLR 02/M00 A3026 RMK SLP251=

CYHE - No TAF is issued for this station

Your time UTC time
Weather data provided by Environment Canada and NAV CANADA